Regional Weather Roundup
Issued by NWS Sioux Falls, SD

Home | Current Version | Previous Version | Graphics & Text | Print | Product List | Glossary On
Versions: 1 2 3 4 5 6 7 8 9 10 11 12 13 14 15 16 17 18 19 20 21 22 23 24 25 26 27 28 29 30 31 32 33 34 35 36 37 38 39 40 41 42 43 44 45 46 47 48 49 50
000
ASUS43 KFSD 290810
RWRFSD

WEATHER ROUNDUP FOR SE SOUTH DAKOTA/SW MINNESOTA/NW IOWA
NATIONAL WEATHER SERVICE SIOUX FALLS SD
300 AM CDT THU SEP 29 2016

NOTE: "FAIR" INDICATES FEW OR NO CLOUDS BELOW 12,000 FEET WITH NO
SIGNIFICANT WEATHER AND OR OBSTRUCTIONS TO VISIBILITY.


SDZ038>040-050-052>070-290900-
SOUTHEAST SOUTH DAKOTA

CITY           SKY/WX    TMP DP  RH WIND       PRES   REMARKS
CHAMBERLAIN    CLOUDY    46  44  93 E6        30.38F
HURON          CLOUDY    39  38  96 CALM      30.40S
MADISON        FAIR      41  41 100 E6        30.41S
MITCHELL       CLOUDY    43  41  93 CALM      30.41R
SIOUX FALLS    CLOUDY    43  41  93 NE3       30.41R
WINNER         FAIR      46  42  86 S6        30.38S
YANKTON        CLOUDY    45  43  93 CALM      30.39R
$$

MNZ071-072-080-081-089-090-097-098-290900-
SOUTHWEST MINNESOTA

CITY           SKY/WX    TMP DP  RH WIND       PRES   REMARKS
FAIRMONT       CLEAR     47  46  97 N7        30.38S
JACKSON        CLEAR     45  43  93 N3        30.39S
LUVERNE        CLOUDY    41  37  87 CALM      30.41S
MARSHALL       CLOUDY    40  39  97 W3        30.42R
MONTEVIDEO     CLEAR     45  43  93 CALM      30.43S
PIPESTONE      CLOUDY    46  43  87 CALM      30.41R
REDWOOD FALLS  CLEAR     50  45  83 NE5       30.41R
TRACY          CLOUDY    44  44  97 CALM      30.42S
WINDOM         CLEAR     46  45  93 N3        30.40S
WORTHINGTON    CLEAR     43  42  97 N7        30.41R
$$

IAZ001>003-012>014-020>022-031-032-NEZ013-014-SDZ071-290900-
NORTHWEST IOWA

CITY           SKY/WX    TMP DP  RH WIND       PRES   REMARKS
CHEROKEE       CLEAR     44  44 100 N3        30.38S
DENISON        CLEAR     48  46  93 NE6       30.34S FOG
ESTHERVILLE    CLEAR     44  44 100 NW6       30.38R
LE MARS        CLEAR     43  41  93 CALM      30.40R
ORANGE CITY    CLOUDY    48  45  87 CALM      30.39S
SHELDON        CLEAR     41  41 100 N5        30.38R
SIOUX CITY     CLEAR     46  44  93 NW5       30.38S
SPENCER        CLEAR     49  47  93 N7        30.38S
STORM LAKE     CLEAR     48  46  93 N8        30.37S
$$

ABBREVIATIONS USED IN REMARKS
   TC - TEMPERATURE IN CELSIUS
  WCI - WIND CHILL INDEX
   HX - HEAT INDEX
  VSB - VISIBILITY





USA.gov is the U.S. government's official web portal to all federal, state and local government web resources and services.